Lid_Strength_Index
10 10 10 11 10 10 10 10 11 9 9 9 8 8 8 9 9 8 8 8 8 8 8 8 8 8 7
11 11 11 10 10 10 10 10 10 9 9 9 8 8 8 9 9 9 9 9 8 8 8 8 8 8 8
12 10 10 10 10 10 10 10 9 8 8 9 8 8 8 8 8 9 9 9 8 9 9 9 9 9 9
11 11 10 10 10 11 11 10 10 8 8 8 7 8 8 8 8 9 9 8 7 8 8 9 9 9 9
11 11 11 11 11 10 10 10 9 9 10 10 10 10 10 8 9 10 9 8 8 8 9 9 9 9 9
10 11 11 10 10 10 10 11 12 9 10 11 10 11 10 10 9 9 9 9 8 8 9 9 9 9 9
9 10 10 9 10 10 10 11 11 10 11 12 11 11 11 10 9 10 9 8 9 9 9 9 9 8 9
7 8 8 8 9 9 10 11 10 10 11 14 12 12 11 11 9 10 9 8 9 9 9 9 9 9 9
6 6 6 7 7 10 11 12 13 12 11 13 13 13 13 13 12 10 10 9 9 9 9 8 8 8 9
8 8 7 8 8 10 11 13 13 13 12 13 13 14 15 13 12 12 12 10 9 9 8 8 8 10 10
8 9 9 10 10 10 11 12 13 13 11 12 13 13 14 14 13 13 12 11 11 10 8 8 8 8 10
9 9 9 10 10 10 11 11 11 12 12 12 14 14 15 15 15 14 13 12 11 10 10 8 7 7 7
10 10 10 10 11 12 11 11 12 12 12 12 13 13 13 14 14 13 13 12 11 11 11 10 10 10 11
10 10 10 12 12 12 13 13 13 13 11 11 12 12 13 12 12 13 12 13 11 11 10 10 10 9 10
11 11 11 12 12 12 14 13 14 14 14 12 10 11 11 12 13 13 13 13 11 10 10 11 11 10 10
11 11 11 11 12 12 14 14 15 14 14 12 11 12 12 12 10 13 13 13 12 11 10 12 12 11 10
11 10 11 12 13 14 13 14 14 14 13 12 12 13 15 17 14 9 13 13 12 12 12 11 11 11 10